ICE115 BIKF-BGGH

Flight info

Callsign ICE115
Flight time 2h 3m
Altitude 38000
Route SORIR3A SORIR DCT SOPEN DCT SABAG DCT NAPIB DCT INBAN DCT GETDA
Aircraft B38M/M-SDE1FGHILORVWXY/HB1

Departure

Time 2026-05-07 21:36
Airport Keflavik International Airport (BIKF)

Arrival

Time 2026-05-07 23:39
Airport Nuuk International Airport (BGGH)
Time Latitude Longitude Altitude Speed Heading
2026-05-07 20:56 63.99323 -22.61802 139 ft 0 kts 90°
2026-05-07 21:14 63.99323 -22.61838 137 ft 4 kts 91°
2026-05-07 21:14 63.99324 -22.61900 145 ft 4 kts 97°
2026-05-07 21:15 63.99330 -22.61957 145 ft 4 kts 120°
2026-05-07 21:15 63.99346 -22.61986 145 ft 2 kts 179°
2026-05-07 21:15 63.99347 -22.61986 145 ft 2 kts 180°
2026-05-07 21:25 63.99341 -22.61986 145 ft 0 kts 180°
2026-05-07 21:26 63.99335 -22.61986 145 ft 0 kts 180°
2026-05-07 21:29 63.99330 -22.61986 145 ft 3 kts 182°
2026-05-07 21:29 63.99267 -22.61987 145 ft 15 kts 179°
2026-05-07 21:29 63.99191 -22.61982 145 ft 8 kts 164°
2026-05-07 21:30 63.99174 -22.61920 145 ft 5 kts 99°
2026-05-07 21:30 63.99173 -22.61772 148 ft 14 kts 90°
2026-05-07 21:30 63.99174 -22.61465 155 ft 24 kts 89°
2026-05-07 21:30 63.99176 -22.61079 164 ft 18 kts 95°
2026-05-07 21:31 63.99142 -22.60916 168 ft 5 kts 187°
2026-05-07 21:31 63.99059 -22.60940 172 ft 20 kts 180°
2026-05-07 21:31 63.98857 -22.60939 171 ft 38 kts 178°
2026-05-07 21:31 63.98555 -22.60935 172 ft 40 kts 184°
2026-05-07 21:32 63.98288 -22.60936 167 ft 43 kts 180°
2026-05-07 21:32 63.97954 -22.60939 171 ft 50 kts 180°
2026-05-07 21:32 63.97789 -22.60939 172 ft 45 kts 179°
2026-05-07 21:33 63.97471 -22.60939 168 ft 48 kts 179°
2026-05-07 21:33 63.97170 -22.60937 159 ft 41 kts 180°
2026-05-07 21:33 63.96872 -22.60938 148 ft 45 kts 181°
2026-05-07 21:33 63.96647 -22.60931 140 ft 25 kts 172°
2026-05-07 21:34 63.96491 -22.60929 138 ft 14 kts 162°
2026-05-07 21:34 63.96461 -22.60761 142 ft 5 kts 86°
2026-05-07 21:34 63.96461 -22.60760 142 ft 0 kts 86°
2026-05-07 21:35 63.96463 -22.60720 143 ft 7 kts 86°
2026-05-07 21:35 63.96477 -22.60559 147 ft 11 kts 52°
2026-05-07 21:35 63.96490 -22.60546 148 ft 2 kts
2026-05-07 21:35 63.96520 -22.60545 149 ft 9 kts
2026-05-07 21:36 63.96865 -22.60535 160 ft 90 kts
2026-05-07 21:36 63.97740 -22.60518 195 ft 157 kts
2026-05-07 21:36 63.98845 -22.60482 1172 ft 155 kts
2026-05-07 21:36 63.99952 -22.60438 2280 ft 148 kts
2026-05-07 21:37 64.00925 -22.60424 2405 ft 135 kts
2026-05-07 21:37 64.01873 -22.60431 2804 ft 141 kts
2026-05-07 21:37 64.02915 -22.60469 3263 ft 158 kts
2026-05-07 21:37 64.04085 -22.60495 3711 ft 178 kts
2026-05-07 21:38 64.05402 -22.60894 4108 ft 208 kts 340°
2026-05-07 21:38 64.06575 -22.63114 4646 ft 233 kts 304°
2026-05-07 21:38 64.07127 -22.66607 5656 ft 238 kts 289°
2026-05-07 21:38 64.07582 -22.70332 6443 ft 246 kts 292°
2026-05-07 21:39 64.08052 -22.74113 7305 ft 250 kts 292°
2026-05-07 21:39 64.08539 -22.77964 8151 ft 253 kts 289°
2026-05-07 21:39 64.09026 -22.81861 9017 ft 257 kts 292°
2026-05-07 21:39 64.09525 -22.85830 9830 ft 262 kts 292°
2026-05-07 21:40 64.10030 -22.89847 10641 ft 264 kts 290°
2026-05-07 21:40 64.10536 -22.93924 11350 ft 269 kts 291°
2026-05-07 21:40 64.11047 -22.98063 12118 ft 273 kts 289°
2026-05-07 21:40 64.11585 -23.02376 12541 ft 290 kts 292°
2026-05-07 21:41 64.12153 -23.06922 13031 ft 305 kts 289°
2026-05-07 21:41 64.12730 -23.11625 13824 ft 307 kts 291°
2026-05-07 21:41 64.13313 -23.16359 14565 ft 311 kts 291°
2026-05-07 21:41 64.13909 -23.21221 15291 ft 315 kts 291°
2026-05-07 21:42 64.14511 -23.26156 16063 ft 317 kts 291°
2026-05-07 21:42 64.15112 -23.31082 16804 ft 320 kts 289°
2026-05-07 21:42 64.15718 -23.36051 17448 ft 325 kts 290°
2026-05-07 21:42 64.16325 -23.41075 18146 ft 329 kts 291°
2026-05-07 21:43 64.16939 -23.46174 18782 ft 333 kts 291°
2026-05-07 21:43 64.17555 -23.51290 19384 ft 335 kts 291°
2026-05-07 21:43 64.18209 -23.56428 19961 ft 335 kts 295°
2026-05-07 21:43 64.19177 -23.61277 20559 ft 335 kts 298°
2026-05-07 21:44 64.20163 -23.66150 21120 ft 338 kts 298°
2026-05-07 21:44 64.21154 -23.71076 21706 ft 341 kts 298°
2026-05-07 21:44 64.22146 -23.76029 22277 ft 343 kts 298°
2026-05-07 21:44 64.23142 -23.81019 22852 ft 344 kts 298°
2026-05-07 21:45 64.24141 -23.86035 23450 ft 345 kts 298°
2026-05-07 21:45 64.25140 -23.91061 24013 ft 346 kts 298°
2026-05-07 21:45 64.26137 -23.96093 24499 ft 346 kts 298°
2026-05-07 21:45 64.27134 -24.01137 24962 ft 347 kts 298°
2026-05-07 21:46 64.28142 -24.06246 25263 ft 353 kts 297°
2026-05-07 21:46 64.29166 -24.11455 25483 ft 361 kts 297°
2026-05-07 21:46 64.30211 -24.16783 25707 ft 369 kts 297°
2026-05-07 21:46 64.31283 -24.22263 25773 ft 382 kts 297°
2026-05-07 21:47 64.32384 -24.27904 25752 ft 390 kts 297°
2026-05-07 21:47 64.33498 -24.33630 25752 ft 392 kts 297°
2026-05-07 21:47 64.34613 -24.39376 25751 ft 392 kts 297°
2026-05-07 21:47 64.35725 -24.45121 25757 ft 392 kts 297°
2026-05-07 21:48 64.36837 -24.50883 25756 ft 392 kts 297°
2026-05-07 21:48 64.37571 -24.54697 25762 ft 393 kts 297°
2026-05-07 21:48 64.39040 -24.62345 26621 ft 383 kts 297°
2026-05-07 21:48 64.40099 -24.67892 27353 ft 375 kts 295°
2026-05-07 21:49 64.40923 -24.73679 27974 ft 372 kts 290°
2026-05-07 21:49 64.41430 -24.77432 28407 ft 367 kts 291°
2026-05-07 21:49 64.42197 -24.83019 29075 ft 361 kts 291°
2026-05-07 21:49 64.42966 -24.88538 29473 ft 363 kts 291°
2026-05-07 21:50 64.43756 -24.94185 29432 ft 374 kts 291°
2026-05-07 21:50 64.44567 -24.99982 29531 ft 382 kts 291°
2026-05-07 21:50 64.45660 -25.07808 29884 ft 387 kts 291°
2026-05-07 21:50 64.46217 -25.11815 30125 ft 388 kts 291°
2026-05-07 21:51 64.47315 -25.19730 30501 ft 391 kts 291°
2026-05-07 21:51 64.47876 -25.23798 30690 ft 392 kts 291°
2026-05-07 21:51 64.48708 -25.29837 30951 ft 394 kts 291°
2026-05-07 21:51 64.49541 -25.35913 31191 ft 397 kts 290°
2026-05-07 21:52 64.50378 -25.42036 31416 ft 399 kts 290°
2026-05-07 21:52 64.51217 -25.48195 31673 ft 401 kts 290°
2026-05-07 21:52 64.52056 -25.54376 31927 ft 403 kts 290°
2026-05-07 21:52 64.52899 -25.60604 32142 ft 405 kts 290°
2026-05-07 21:53 64.53732 -25.66788 32370 ft 408 kts 290°
2026-05-07 21:53 64.54579 -25.73098 32598 ft 410 kts 290°
2026-05-07 21:53 64.55426 -25.79431 32831 ft 411 kts 290°
2026-05-07 21:53 64.56285 -25.85884 33073 ft 413 kts 290°
2026-05-07 21:54 64.57123 -25.92194 33291 ft 415 kts 290°
2026-05-07 21:54 64.57973 -25.98634 33491 ft 417 kts 289°
2026-05-07 21:54 64.58825 -26.05101 33730 ft 419 kts 290°
2026-05-07 21:54 64.59677 -26.11600 33948 ft 420 kts 290°
2026-05-07 21:55 64.60531 -26.18143 34109 ft 423 kts 290°
2026-05-07 21:55 64.61386 -26.24714 34334 ft 425 kts 289°
2026-05-07 21:55 64.62243 -26.31327 34487 ft 427 kts 290°
2026-05-07 21:55 64.63099 -26.37963 34665 ft 428 kts 289°
2026-05-07 21:56 64.63957 -26.44638 34829 ft 430 kts 289°
2026-05-07 21:56 64.64814 -26.51337 34998 ft 432 kts 289°
2026-05-07 21:56 64.65671 -26.58065 35156 ft 433 kts 289°
2026-05-07 21:56 64.66528 -26.64820 35330 ft 435 kts 289°
2026-05-07 21:57 64.67385 -26.71594 35493 ft 436 kts 289°
2026-05-07 21:57 64.68244 -26.78408 35649 ft 438 kts 289°
2026-05-07 21:57 64.69104 -26.85247 35791 ft 440 kts 289°
2026-05-07 21:57 64.69937 -26.92139 35940 ft 442 kts 285°
2026-05-07 21:58 64.70590 -26.99185 36100 ft 444 kts 285°
2026-05-07 21:58 64.71249 -27.06174 36248 ft 446 kts 285°
2026-05-07 21:58 64.71934 -27.13351 36408 ft 447 kts 285°
2026-05-07 21:58 64.72615 -27.20463 36555 ft 449 kts 285°
2026-05-07 21:59 64.73297 -27.27602 36696 ft 451 kts 285°
2026-05-07 21:59 64.73977 -27.34770 36845 ft 452 kts 285°
2026-05-07 21:59 64.74659 -27.41988 37004 ft 454 kts 285°
2026-05-07 21:59 64.75337 -27.49207 37153 ft 455 kts 285°
2026-05-07 22:00 64.76014 -27.56454 37298 ft 457 kts 285°
2026-05-07 22:00 64.76690 -27.63741 37441 ft 458 kts 285°
2026-05-07 22:00 64.77365 -27.71055 37584 ft 460 kts 285°
2026-05-07 22:00 64.78038 -27.78390 37725 ft 461 kts 285°
2026-05-07 22:01 64.78703 -27.85748 37853 ft 462 kts 285°
2026-05-07 22:01 64.79376 -27.93125 37953 ft 464 kts 285°
2026-05-07 22:01 64.80045 -28.00531 38074 ft 465 kts 284°
2026-05-07 22:01 64.80710 -28.07955 38234 ft 465 kts 284°
2026-05-07 22:02 64.81371 -28.15368 38380 ft 464 kts 284°
2026-05-07 22:02 64.82025 -28.22767 38409 ft 461 kts 284°
2026-05-07 22:02 64.83305 -28.37353 38410 ft 454 kts 284°
2026-05-07 22:03 64.84567 -28.51919 38409 ft 455 kts 284°
2026-05-07 22:03 64.85816 -28.66505 38398 ft 455 kts 284°
2026-05-07 22:04 64.87049 -28.81099 38395 ft 455 kts 284°
2026-05-07 22:04 64.88270 -28.95724 38387 ft 455 kts 284°
2026-05-07 22:05 64.89475 -29.10346 38403 ft 455 kts 284°
2026-05-07 22:05 64.90666 -29.24977 38410 ft 455 kts 284°
2026-05-07 22:06 64.91842 -29.39622 38409 ft 455 kts 283°
2026-05-07 22:06 64.93005 -29.54293 38405 ft 455 kts 283°
2026-05-07 22:07 64.94152 -29.68963 38411 ft 455 kts 283°
2026-05-07 22:07 64.95287 -29.83668 38418 ft 455 kts 283°
2026-05-07 22:08 64.96407 -29.98374 38386 ft 455 kts 283°
2026-05-07 22:08 64.97511 -30.13081 38411 ft 455 kts 283°
2026-05-07 22:09 64.98600 -30.27802 38412 ft 455 kts 283°
2026-05-07 22:09 64.99676 -30.42538 38413 ft 455 kts 283°
2026-05-07 22:10 65.00736 -30.57283 38414 ft 455 kts 283°
2026-05-07 22:10 65.01783 -30.72041 38412 ft 455 kts 282°
2026-05-07 22:11 65.02815 -30.86817 38403 ft 455 kts 282°
2026-05-07 22:11 65.03832 -31.01604 38412 ft 455 kts 282°
2026-05-07 22:12 65.04835 -31.16407 38424 ft 455 kts 282°
2026-05-07 22:12 65.05823 -31.31204 38411 ft 455 kts 282°
2026-05-07 22:13 65.06790 -31.45918 38415 ft 455 kts 282°
2026-05-07 22:13 65.07754 -31.60837 38418 ft 455 kts 282°
2026-05-07 22:14 65.08692 -31.75577 38422 ft 455 kts 282°
2026-05-07 22:14 65.09622 -31.90428 38416 ft 455 kts 282°
2026-05-07 22:15 65.10532 -32.05217 38404 ft 455 kts 282°
2026-05-07 22:15 65.10988 -32.12718 38258 ft 453 kts 282°
2026-05-07 22:15 65.11437 -32.20169 38377 ft 448 kts 282°
2026-05-07 22:16 65.12304 -32.34729 38363 ft 447 kts 282°
2026-05-07 22:16 65.13165 -32.49444 38375 ft 447 kts 282°
2026-05-07 22:17 65.14002 -32.64012 38369 ft 447 kts 282°
2026-05-07 22:17 65.14829 -32.78645 38368 ft 447 kts 282°
2026-05-07 22:18 65.16042 -33.00615 38373 ft 447 kts 282°
2026-05-07 22:19 65.16833 -33.15268 38366 ft 447 kts 282°
2026-05-07 22:19 65.17608 -33.29903 38345 ft 445 kts 281°
2026-05-07 22:20 65.18368 -33.44534 38355 ft 445 kts 281°
2026-05-07 22:20 65.19112 -33.59151 38359 ft 445 kts 281°
2026-05-07 22:21 65.19843 -33.73772 38355 ft 445 kts 281°
2026-05-07 22:21 65.20558 -33.88392 38353 ft 444 kts 281°
2026-05-07 22:22 65.21263 -34.03012 38349 ft 444 kts 281°
2026-05-07 22:22 65.21955 -34.17638 38359 ft 444 kts 281°
2026-05-07 22:23 65.22634 -34.32262 38311 ft 444 kts 281°
2026-05-07 22:23 65.23300 -34.46884 38370 ft 443 kts 280°
2026-05-07 22:24 65.23942 -34.61307 38328 ft 443 kts 280°
2026-05-07 22:24 65.24142 -34.68846 38297 ft 448 kts 263°
2026-05-07 22:24 65.23401 -34.76012 38496 ft 442 kts 262°
2026-05-07 22:24 65.22897 -34.83238 38265 ft 440 kts 272°
2026-05-07 22:25 65.22781 -34.90485 38351 ft 440 kts 270°
2026-05-07 22:25 65.22342 -35.05121 38372 ft 444 kts 271°
2026-05-07 22:26 65.21931 -35.19897 38336 ft 448 kts 270°
2026-05-07 22:26 65.22049 -35.34558 38350 ft 438 kts 280°
2026-05-07 22:27 65.22513 -35.49155 38312 ft 442 kts 277°
2026-05-07 22:27 65.22850 -35.63821 38333 ft 443 kts 277°
2026-05-07 22:28 65.23147 -35.78504 38323 ft 443 kts 277°
2026-05-07 22:28 65.23427 -35.93173 38327 ft 443 kts 276°
2026-05-07 22:29 65.23692 -36.07833 38318 ft 442 kts 276°
2026-05-07 22:29 65.23943 -36.22496 38323 ft 442 kts 276°
2026-05-07 22:30 65.24179 -36.37141 38317 ft 442 kts 276°
2026-05-07 22:30 65.24402 -36.51792 38313 ft 442 kts 276°
2026-05-07 22:31 65.24609 -36.66430 38312 ft 442 kts 276°
2026-05-07 22:31 65.24771 -36.78592 38313 ft 441 kts 275°
2026-05-07 22:32 65.24953 -36.93226 38308 ft 441 kts 275°
2026-05-07 22:32 65.25120 -37.07860 38310 ft 441 kts 275°
2026-05-07 22:33 65.25273 -37.22487 38300 ft 441 kts 275°
2026-05-07 22:33 65.25412 -37.37200 38302 ft 440 kts 275°
2026-05-07 22:34 65.25535 -37.51690 38298 ft 440 kts 274°
2026-05-07 22:34 65.25647 -37.66377 38303 ft 439 kts 274°
2026-05-07 22:35 65.25742 -37.80850 38301 ft 439 kts 274°
2026-05-07 22:35 65.25824 -37.95517 38303 ft 439 kts 274°
2026-05-07 22:36 65.25891 -38.09980 38292 ft 439 kts 274°
2026-05-07 22:36 65.25945 -38.24532 38299 ft 438 kts 274°
2026-05-07 22:37 65.25984 -38.39074 38285 ft 438 kts 273°
2026-05-07 22:37 65.26010 -38.53614 38282 ft 438 kts 273°
2026-05-07 22:38 65.26021 -38.68143 38287 ft 438 kts 272°
2026-05-07 22:38 65.26019 -38.82658 38289 ft 437 kts 272°
2026-05-07 22:39 65.26002 -38.97177 38281 ft 437 kts 272°
2026-05-07 22:39 65.25970 -39.11691 38286 ft 437 kts 271°
2026-05-07 22:40 65.25925 -39.26196 38280 ft 437 kts 271°
2026-05-07 22:40 65.25867 -39.40691 38282 ft 436 kts 271°
2026-05-07 22:41 65.25795 -39.55178 38247 ft 436 kts 271°
2026-05-07 22:41 65.25709 -39.69664 38272 ft 437 kts 270°
2026-05-07 22:42 65.25609 -39.84162 38273 ft 437 kts 270°
2026-05-07 22:42 65.25494 -39.98635 38274 ft 436 kts 270°
2026-05-07 22:43 65.25364 -40.13070 38278 ft 434 kts 270°
2026-05-07 22:43 65.25225 -40.27454 38293 ft 434 kts 269°
2026-05-07 22:44 65.25071 -40.41861 38278 ft 434 kts 269°
2026-05-07 22:44 65.24902 -40.56231 38278 ft 433 kts 269°
2026-05-07 22:45 65.24721 -40.70504 38283 ft 433 kts 269°
2026-05-07 22:45 65.24527 -40.84826 38300 ft 432 kts 269°
2026-05-07 22:46 65.24318 -40.99152 38306 ft 432 kts 268°
2026-05-07 22:46 65.24097 -41.13451 38291 ft 431 kts 268°
2026-05-07 22:47 65.23861 -41.27768 38313 ft 432 kts 268°
2026-05-07 22:47 65.23612 -41.42040 38309 ft 431 kts 268°
2026-05-07 22:48 65.23350 -41.56336 38316 ft 432 kts 267°
2026-05-07 22:48 65.23078 -41.70382 38284 ft 430 kts 267°
2026-05-07 22:49 65.22786 -41.84847 38266 ft 430 kts 266°
2026-05-07 22:49 65.22484 -41.99066 38268 ft 430 kts 266°
2026-05-07 22:50 65.22168 -42.13320 38246 ft 430 kts 266°
2026-05-07 22:50 65.21839 -42.27553 38246 ft 430 kts 266°
2026-05-07 22:51 65.21496 -42.41792 38242 ft 430 kts 266°
2026-05-07 22:51 65.21141 -42.56004 38233 ft 430 kts 266°
2026-05-07 22:52 65.20771 -42.70218 38228 ft 430 kts 265°
2026-05-07 22:52 65.20390 -42.84376 38228 ft 427 kts 265°
2026-05-07 22:53 65.19997 -42.98489 38228 ft 427 kts 265°
2026-05-07 22:53 65.19590 -43.12622 38227 ft 426 kts 265°
2026-05-07 22:54 65.19172 -43.26668 38222 ft 426 kts 264°
2026-05-07 22:54 65.18738 -43.40782 38218 ft 430 kts 264°
2026-05-07 22:55 65.18287 -43.55031 38222 ft 433 kts 264°
2026-05-07 22:55 65.17821 -43.69315 38217 ft 432 kts 264°
2026-05-07 22:56 65.17342 -43.83568 38214 ft 433 kts 264°
2026-05-07 22:56 65.16844 -43.97952 38229 ft 433 kts 263°
2026-05-07 22:57 65.16336 -44.12304 38216 ft 432 kts 263°
2026-05-07 22:57 65.15817 -44.26539 38216 ft 432 kts 263°
2026-05-07 22:58 65.15284 -44.40767 38216 ft 432 kts 263°
2026-05-07 22:58 65.14737 -44.54998 38219 ft 432 kts 262°
2026-05-07 22:59 65.14178 -44.69214 38219 ft 432 kts 262°
2026-05-07 22:59 65.13604 -44.83427 38220 ft 432 kts 262°
2026-05-07 23:00 65.13021 -44.97554 38221 ft 433 kts 262°
2026-05-07 23:00 65.12420 -45.11780 38219 ft 433 kts 262°
2026-05-07 23:01 65.11805 -45.25984 38232 ft 433 kts 262°
2026-05-07 23:01 65.11174 -45.40282 38226 ft 436 kts 262°
2026-05-07 23:02 65.10527 -45.54598 38214 ft 436 kts 261°
2026-05-07 23:02 65.09870 -45.68834 38201 ft 436 kts 261°
2026-05-07 23:03 65.09193 -45.83223 38201 ft 436 kts 261°
2026-05-07 23:03 65.08504 -45.97524 38197 ft 437 kts 261°
2026-05-07 23:04 65.07803 -46.11828 38206 ft 437 kts 261°
2026-05-07 23:04 65.07088 -46.26103 38207 ft 437 kts 261°
2026-05-07 23:05 65.06357 -46.40420 38200 ft 437 kts 261°
2026-05-07 23:05 65.05614 -46.54694 38231 ft 437 kts 260°
2026-05-07 23:06 65.04857 -46.68986 38209 ft 437 kts 260°
2026-05-07 23:06 65.04086 -46.83268 38198 ft 437 kts 260°
2026-05-07 23:07 65.03301 -46.97541 38195 ft 437 kts 260°
2026-05-07 23:07 65.02503 -47.11805 38196 ft 437 kts 260°
2026-05-07 23:08 65.01686 -47.26156 38194 ft 437 kts 260°
2026-05-07 23:08 65.00871 -47.40218 38195 ft 437 kts 260°
2026-05-07 23:09 65.00035 -47.54419 38190 ft 433 kts 259°
2026-05-07 23:09 64.99195 -47.68435 38184 ft 430 kts 259°
2026-05-07 23:10 64.98337 -47.82534 38213 ft 431 kts 259°
2026-05-07 23:10 64.97470 -47.96520 37836 ft 427 kts 258°
2026-05-07 23:10 64.97036 -48.03435 37289 ft 423 kts 258°
2026-05-07 23:11 64.96607 -48.10238 36944 ft 415 kts 258°
2026-05-07 23:11 64.96320 -48.14763 36727 ft 409 kts 258°
2026-05-07 23:11 64.95902 -48.21319 36421 ft 399 kts 258°
2026-05-07 23:11 64.95483 -48.27813 36126 ft 402 kts 258°
2026-05-07 23:12 64.95055 -48.34400 35847 ft 410 kts 258°
2026-05-07 23:12 64.94619 -48.41089 35541 ft 413 kts 258°
2026-05-07 23:12 64.94180 -48.47779 35251 ft 412 kts 257°
2026-05-07 23:12 64.93740 -48.54447 34958 ft 410 kts 257°
2026-05-07 23:13 64.93301 -48.61075 34675 ft 408 kts 257°
2026-05-07 23:13 64.92862 -48.67662 34391 ft 406 kts 257°
2026-05-07 23:13 64.92422 -48.74220 34096 ft 404 kts 257°
2026-05-07 23:13 64.91980 -48.80746 33760 ft 402 kts 257°
2026-05-07 23:14 64.91538 -48.87249 33434 ft 401 kts 257°
2026-05-07 23:14 64.91093 -48.93727 33123 ft 400 kts 257°
2026-05-07 23:14 64.90649 -49.00170 32787 ft 398 kts 257°
2026-05-07 23:14 64.90206 -49.06560 32486 ft 392 kts 257°
2026-05-07 23:15 64.89766 -49.12882 32225 ft 389 kts 257°
2026-05-07 23:15 64.89324 -49.19188 31824 ft 393 kts 257°
2026-05-07 23:15 64.88876 -49.25535 31423 ft 393 kts 257°
2026-05-07 23:15 64.88427 -49.31861 31026 ft 391 kts 257°
2026-05-07 23:16 64.87979 -49.38148 30627 ft 389 kts 257°
2026-05-07 23:16 64.87533 -49.44353 30242 ft 386 kts 257°
2026-05-07 23:16 64.87081 -49.50617 29760 ft 386 kts 257°
2026-05-07 23:16 64.86631 -49.56828 29294 ft 381 kts 257°
2026-05-07 23:17 64.86195 -49.62807 28853 ft 361 kts 257°
2026-05-07 23:17 64.85768 -49.68613 28461 ft 364 kts 257°
2026-05-07 23:17 64.85325 -49.74597 27787 ft 380 kts 257°
2026-05-07 23:17 64.84866 -49.80775 27204 ft 387 kts 256°
2026-05-07 23:18 64.84397 -49.87030 26732 ft 391 kts 256°
2026-05-07 23:18 64.83924 -49.93307 26255 ft 389 kts 256°
2026-05-07 23:18 64.83350 -49.99500 25854 ft 386 kts 247°
2026-05-07 23:18 64.82156 -50.05092 25458 ft 381 kts 239°
2026-05-07 23:19 64.81022 -50.10679 25076 ft 378 kts 244°
2026-05-07 23:19 64.79969 -50.16293 24364 ft 377 kts 243°
2026-05-07 23:19 64.78878 -50.21912 23543 ft 379 kts 243°
2026-05-07 23:19 64.77777 -50.27478 22917 ft 374 kts 242°
2026-05-07 23:20 64.76676 -50.32965 22267 ft 370 kts 242°
2026-05-07 23:20 64.75576 -50.38394 21640 ft 367 kts 242°
2026-05-07 23:20 64.74480 -50.43777 21011 ft 367 kts 241°
2026-05-07 23:20 64.73378 -50.49171 20366 ft 367 kts 241°
2026-05-07 23:21 64.72275 -50.54560 19740 ft 367 kts 241°
2026-05-07 23:21 64.71169 -50.59953 19217 ft 369 kts 241°
2026-05-07 23:21 64.70052 -50.65375 18844 ft 372 kts 240°
2026-05-07 23:21 64.68928 -50.70824 18502 ft 372 kts 240°
2026-05-07 23:22 64.67803 -50.76263 18101 ft 372 kts 240°
2026-05-07 23:22 64.66752 -50.81332 17713 ft 370 kts 240°
2026-05-07 23:22 64.65561 -50.87053 17200 ft 367 kts 240°
2026-05-07 23:22 64.64445 -50.92401 16736 ft 366 kts 240°
2026-05-07 23:23 64.63333 -50.97718 16279 ft 364 kts 240°
2026-05-07 23:23 64.62222 -51.03021 15777 ft 363 kts 240°
2026-05-07 23:23 64.61115 -51.08292 15266 ft 361 kts 240°
2026-05-07 23:23 64.60011 -51.13535 14770 ft 360 kts 240°
2026-05-07 23:24 64.58902 -51.18786 14339 ft 359 kts 239°
2026-05-07 23:24 64.57789 -51.24049 13886 ft 358 kts 239°
2026-05-07 23:24 64.56688 -51.29244 13459 ft 357 kts 239°
2026-05-07 23:24 64.55590 -51.34415 13127 ft 357 kts 239°
2026-05-07 23:25 64.54293 -51.39258 12812 ft 350 kts 224°
2026-05-07 23:25 64.52399 -51.42673 12456 ft 345 kts 205°
2026-05-07 23:25 64.50197 -51.44822 12019 ft 342 kts 200°
2026-05-07 23:25 64.48000 -51.46891 11577 ft 339 kts 200°
2026-05-07 23:26 64.45825 -51.48857 11299 ft 331 kts 199°
2026-05-07 23:26 64.43712 -51.50717 11115 ft 320 kts 199°
2026-05-07 23:26 64.41645 -51.52506 10774 ft 315 kts 198°
2026-05-07 23:26 64.39606 -51.54248 10311 ft 307 kts 198°
2026-05-07 23:27 64.35698 -51.57531 9293 ft 288 kts 197°
2026-05-07 23:27 64.33852 -51.59091 8898 ft 277 kts 197°
2026-05-07 23:27 64.32102 -51.60575 8761 ft 257 kts 197°
2026-05-07 23:28 64.30486 -51.61936 8690 ft 244 kts 196°
2026-05-07 23:28 64.28873 -51.63284 8407 ft 248 kts 196°
2026-05-07 23:28 64.27249 -51.64643 8107 ft 249 kts 196°
2026-05-07 23:28 64.25626 -51.66001 7798 ft 248 kts 196°
2026-05-07 23:29 64.24014 -51.67350 7529 ft 245 kts 196°
2026-05-07 23:29 64.22417 -51.68683 7270 ft 244 kts 195°
2026-05-07 23:29 64.20795 -51.70019 6631 ft 254 kts 198°
2026-05-07 23:29 64.19121 -51.71428 6719 ft 254 kts 196°
2026-05-07 23:30 64.17472 -51.72806 6467 ft 250 kts 195°
2026-05-07 23:30 64.15787 -51.73439 6231 ft 242 kts 175°
2026-05-07 23:30 64.14133 -51.73346 5729 ft 235 kts 179°
2026-05-07 23:30 64.12495 -51.73470 6132 ft 235 kts 179°
2026-05-07 23:31 64.10868 -51.73668 6030 ft 233 kts 179°
2026-05-07 23:31 64.09260 -51.73875 5867 ft 231 kts 179°
2026-05-07 23:31 64.07683 -51.73800 5725 ft 226 kts 168°
2026-05-07 23:31 64.06147 -51.73060 5554 ft 225 kts 165°
2026-05-07 23:32 64.04603 -51.72480 5381 ft 225 kts 173°
2026-05-07 23:32 64.03059 -51.72023 5304 ft 223 kts 165°
2026-05-07 23:32 64.01557 -51.71136 5255 ft 222 kts 156°
2026-05-07 23:32 64.00246 -51.69310 5200 ft 223 kts 144°
2026-05-07 23:33 63.98947 -51.67375 5060 ft 223 kts 154°
2026-05-07 23:33 63.97452 -51.66566 4950 ft 222 kts 172°
2026-05-07 23:33 63.95911 -51.66673 4822 ft 225 kts 190°
2026-05-07 23:33 63.94589 -51.68602 4628 ft 237 kts 224°
2026-05-07 23:34 63.93991 -51.72183 4484 ft 255 kts 259°
2026-05-07 23:34 63.94286 -51.76205 4355 ft 260 kts 279°
2026-05-07 23:34 63.94920 -51.80041 4117 ft 258 kts 284°
2026-05-07 23:34 63.95739 -51.83676 3775 ft 261 kts 301°
2026-05-07 23:35 63.97129 -51.86321 3402 ft 261 kts 326°
2026-05-07 23:35 63.98822 -51.87424 3136 ft 248 kts
2026-05-07 23:35 64.00489 -51.87003 3172 ft 240 kts 12°
2026-05-07 23:35 64.02101 -51.86082 3109 ft 237 kts 19°
2026-05-07 23:36 64.03634 -51.85041 2993 ft 221 kts 19°
2026-05-07 23:36 64.05088 -51.84061 2845 ft 215 kts 22°
2026-05-07 23:36 64.06325 -51.82529 2598 ft 191 kts 39°
2026-05-07 23:36 64.07420 -51.80966 2312 ft 182 kts 43°
2026-05-07 23:37 64.08451 -51.79365 2021 ft 171 kts 46°
2026-05-07 23:37 64.09363 -51.77727 2284 ft 169 kts 44°
2026-05-07 23:37 64.10279 -51.75990 2436 ft 172 kts 50°
2026-05-07 23:37 64.11274 -51.74426 2397 ft 177 kts 38°
2026-05-07 23:38 64.12378 -51.73161 2199 ft 177 kts 30°
2026-05-07 23:38 64.13506 -51.72140 1892 ft 172 kts 28°
2026-05-07 23:38 64.14639 -51.71310 1523 ft 169 kts 21°
2026-05-07 23:38 64.15743 -51.70529 1213 ft 164 kts 26°
2026-05-07 23:39 64.16798 -51.69638 796 ft 159 kts 22°
2026-05-07 23:39 64.17844 -51.68854 390 ft 155 kts 18°
2026-05-07 23:39 64.18806 -51.68151 286 ft 136 kts 20°
2026-05-07 23:39 64.19346 -51.67755 282 ft 41 kts 17°
2026-05-07 23:40 64.19591 -51.67581 285 ft 29 kts 17°
2026-05-07 23:40 64.19793 -51.67436 285 ft 22 kts 11°
2026-05-07 23:40 64.19843 -51.67401 285 ft 4 kts 61°
2026-05-07 23:40 64.19844 -51.67367 290 ft 0 kts 110°
2026-05-07 23:41 64.19841 -51.67363 285 ft 0 kts 147°
2026-05-07 23:41 64.19835 -51.67368 285 ft 4 kts 199°
2026-05-07 23:41 64.19772 -51.67425 286 ft 16 kts 202°
2026-05-07 23:41 64.19631 -51.67543 286 ft 27 kts 199°
2026-05-07 23:42 64.19416 -51.67696 282 ft 38 kts 196°
2026-05-07 23:42 64.19149 -51.67872 284 ft 23 kts 178°
2026-05-07 23:42 64.19078 -51.67665 289 ft 10 kts 108°
2026-05-07 23:42 64.18998 -51.67626 284 ft 17 kts 197°
2026-05-07 23:43 64.18853 -51.67732 284 ft 26 kts 198°
2026-05-07 23:43 64.18668 -51.67867 284 ft 30 kts 197°
2026-05-07 23:43 64.18483 -51.67999 284 ft 25 kts 198°
2026-05-07 23:43 64.18414 -51.68049 284 ft 10 kts 197°
2026-05-07 23:44 64.18376 -51.68072 284 ft 3 kts 182°
2026-05-07 23:44 64.18356 -51.68034 284 ft 5 kts 115°
2026-05-07 23:44 64.18353 -51.67976 284 ft 3 kts 112°
2026-05-07 23:44 64.18342 -51.67946 284 ft 0 kts 141°